This demonstration page uses our WeatherBlox Daily Observations layout. Learn more.

41.55636, -103.73856

Hourly Observations for August 12, 2016

Temp ( °F °C ) Dew Point ( °F °C ) Humidity (%) Winds ( mph kmh ) Pressure ( in mb ) Visibility ( mi km ) Precip ( " mm )
12:53 am 00:53 Clear 58 14.4 57 13.9 97 97 NW 6 9 30.01 1016 10 16.0934 0 0
1:53 am 01:53 Clear 58 14.4 56 13.3 93 93 NNW 7 11 30.02 1017 10 16.0934 0 0
2:53 am 02:53 Clear 57 13.9 54 12.2 90 90 WNW 7 11 30.02 1017 10 16.0934 0 0
3:53 am 03:53 Clear 56 13.3 53 11.7 90 90 W 8 13 30.03 1017 10 16.0934 0 0
4:53 am 04:53 Clear 55 12.8 52 11.1 90 90 W 6 9 30.04 1017 10 16.0934 0 0
5:53 am 05:53 Clear 54 12.2 51 10.6 90 90 NW 8 13 30.07 1018 10 16.0934 0 0
6:53 am 06:53 Sunny 56 13.3 52 11.1 87 87 NNW 6 9 30.08 1019 10 16.0934 0 0
7:53 am 07:53 Sunny 60 15.6 53 11.7 78 78 WNW 9 15 30.11 1020 10 16.0934 0 0
8:53 am 08:53 Sunny 65 18.3 53 11.7 66 66 NW 10 17 30.1 1019 10 16.0934 0 0
9:53 am 09:53 Sunny 69 20.6 53 11.7 57 57 WNW 10 17 30.1 1019 10 16.0934 0 0
10:53 am 10:53 Sunny 73 22.8 54 12.2 51 51 W 10 17 30.09 1019 10 16.0934 0 0
11:53 am 11:53 Sunny 78 25.6 53 11.7 42 42 VRB 7 11 30.06 1018 10 16.0934 0 0
12:53 pm 12:53 Sunny 80 26.7 52 11.1 38 38 W 8 13 30.05 1018 10 16.0934 0 0
1:53 pm 13:53 Mostly Sunny 82 27.8 49 9.4 32 32 VRB 6 9 30.04 1017 10 16.0934 0 0
2:53 pm 14:53 Partly Cloudy 84 28.9 43 6.1 24 24 VRB 6 9 30.03 1017 10 16.0934 0 0
3:53 pm 15:53 Mostly Sunny 84 28.9 41 5 22 22 VRB 3 6 30.02 1017 10 16.0934 0 0
4:53 pm 16:53 Sunny 83 28.3 42 5.6 24 24 SSW 5 7 30.02 1017 10 16.0934 0 0
5:53 pm 17:53 Sunny 82 27.8 44 6.7 26 26 SSE 8 13 30.01 1016 10 16.0934 0 0
6:53 pm 18:53 Sunny 80 26.7 46 7.8 30 30 SSE 6 9 29.99 1016 10 16.0934 0 0
7:53 pm 19:53 Sunny 72 22.2 56 13.3 57 57 ESE 6 9 30.01 1016 10 16.0934 0 0
8:53 pm 20:53 Clear 67 19.4 57 13.9 71 71 SE 5 7 30.03 1017 10 16.0934 0 0
9:53 pm 21:53 Clear 65 18.3 54 12.2 68 68 S 6 9 30.05 1018 10 16.0934 0 0
10:53 pm 22:53 Clear 61 16.1 54 12.2 78 78 E 3 6 30.06 1018 10 16.0934 0 0
11:53 pm 23:53 Clear 61 16.1 53 11.7 75 75 ENE 3 6 30.04 1017 10 16.0934 0 0

Powered by AerisWeather